カタログに戻る

ORBCOMM FM 30

運用中通信LEO
NORAD 25980·PAYLOAD·🇺🇸 United States

打ち上げ Dec 4, 1999 から Cape Canaveral Space Force Station

Loading…

次のパス (今後24時間)

TLE

最新Source: Space-Track

元期: Sep 14, 2026, 13:13 UTC

1 25980U 99065A   26257.55115454  .00000479  00000-0  20261-3 0  9999
2 25980  45.0305  97.1857 0006868 121.2186 238.9336 14.38265968399848

AllMySatでORBCOMM FM 30をリアルタイム追跡

Download on the App Store